Tracking 28518 objects as of 2-Mar-2024
HD Live streaming from Space Station
objects crossing your sky now

OBJECT P

Track OBJECT P now!
10-day predictions


NORAD ID: 58269
Int'l Code: 2023-174P
Perigee: 514.8 km
Apogee: 530.4 km
Inclination: 97.5 °
Period: 94.9 minutes
Semi major axis: 6893 km
RCS: Unknown
Launch date: November 11, 2023
Source: (TBD)
Launch site: AIR FORCE WESTERN TEST RANGE (AFWTR)
Your satellite tracking list
Your tracking list is empty




NASA's NSSDC Master Catalog

Two Line Element Set (TLE):
1 58269U 23174P   24062.17540958  .00013639  00000-0  69535-3 0  9993
2 58269  97.4695 138.3343 0011272 249.7392 110.2629 15.16821018 17479
Source of the keplerian elements: AFSPC